EW9826 Weather Reports


Display with metric or nautical units.
time (UTC)temp
F
wind
direction
speed
MPH
gust
MPH
rain 1hr
in
rain 24hr
in
rain mn
in
humidity
%
barometer
mb
20260904222601 66 294 6.0 12.0 0.00 0.11 0.00 68 1015.7
20260904220100 65 295 6.0 12.0 0.00 0.11 0.00 69 1015.6
20260904215600 66 290 4.0 10.0 0.00 0.11 0.11 68 1015.4
20260904215100 66 285 8.0 14.0 0.00 0.11 0.11 67 1015.4
20260904214600 66 292 5.0 14.0 0.00 0.11 0.11 67 1015.4
20260904214101 66 320 9.0 17.0 0.00 0.11 0.11 67 1015.4
20260904211600 66 274 5.0 12.0 0.00 0.11 0.11 68 1015.3
20260904211100 66 280 6.0 17.0 0.00 0.11 0.11 68 1015.3
20260904210100 66 300 7.0 12.0 0.00 0.11 0.11 68 1015.2
20260904205559 66 293 6.0 12.0 0.00 0.11 0.11 69 1015.0
20260904195559 66 287 5.0 16.0 0.00 0.11 0.11 69 1014.8
20260904195101 66 267 9.0 14.0 0.00 0.11 0.11 69 1014.8
20260904194600 66 272 6.0 10.0 0.00 0.11 0.11 69 1014.8
20260904194100 66 296 7.0 12.0 0.00 0.11 0.11 69 1014.7
20260904193601 66 299 6.0 12.0 0.00 0.11 0.11 68 1014.7
20260904192101 66 288 8.0 15.0 0.00 0.11 0.11 68 1014.4
20260904185101 66 276 6.0 9.0 0.00 0.11 0.11 70 1014.2
20260904184559 66 286 5.0 12.0 0.00 0.11 0.11 70 1014.1
20260904183100 66 282 5.0 10.0 0.00 0.11 0.11 71 1013.8
20260904182559 66 293 6.0 12.0 0.00 0.11 0.11 71 1013.9
20260904180100 66 306 5.0 13.0 0.00 0.11 0.11 71 1013.8
20260904175600 66 289 6.0 13.0 0.00 0.11 0.11 71 1013.8
20260904174100 67 283 7.0 14.0 0.00 0.11 0.11 73 1013.5
20260904173600 67 299 6.0 14.0 0.00 0.11 0.11 73 1013.6
20260904173101 67 308 7.0 15.0 0.00 0.11 0.11 74 1013.5
20260904172559 67 280 5.0 12.0 0.00 0.11 0.11 75 1013.6
20260904172101 67 306 6.0 12.0 0.00 0.11 0.11 75 1013.3
20260904165600 67 293 6.0 12.0 0.00 0.11 0.11 73 1013.0
20260904164600 67 294 9.0 16.0 0.00 0.11 0.11 71 1013.1
20260904164100 67 289 10.0 17.0 0.00 0.11 0.11 73 1013.2
20260904163559 67 284 9.0 15.0 0.00 0.11 0.11 74 1012.9
20260904163100 67 273 7.0 14.0 0.00 0.11 0.11 74 1012.8
20260904162600 67 292 6.0 16.0 0.00 0.11 0.11 74 1012.8
20260904162100 67 290 11.0 20.0 0.00 0.11 0.11 74 1012.7
20260904161559 67 292 7.0 16.0 0.00 0.11 0.11 76 1012.7
20260904161101 68 294 10.0 18.0 0.00 0.11 0.11 76 1012.4
20260904154100 68 245 5.0 9.0 0.00 0.11 0.11 74 1012.2
20260904153559 68 267 7.0 15.0 0.00 0.11 0.11 75 1012.3
20260904153100 68 286 9.0 14.0 0.00 0.11 0.11 76 1012.5
20260904152559 68 284 9.0 16.0 0.00 0.11 0.11 76 1012.7
20260904150059 68 291 8.0 18.0 0.00 0.11 0.11 79 1012.2
20260904145600 68 280 6.0 14.0 0.00 0.11 0.11 80 1012.2
20260904142559 68 290 8.0 14.0 0.00 0.11 0.11 83 1012.0
20260904142100 68 262 7.0 13.0 0.00 0.11 0.11 82 1011.7
20260904141600 68 273 6.0 12.0 0.00 0.11 0.11 82 1011.7
20260904141101 68 281 7.0 14.0 0.00 0.11 0.11 83 1011.7
20260904140059 68 293 10.0 17.0 0.00 0.11 0.11 82 1011.6
20260904135600 68 272 9.0 18.0 0.00 0.11 0.11 82 1011.6
20260904135101 68 293 12.0 25.0 0.00 0.11 0.11 81 1011.7
20260904134600 68 288 5.0 20.0 0.00 0.11 0.11 82 1011.7
20260904133100 68 289 8.0 16.0 0.00 0.11 0.11 84 1011.2
20260904132559 68 273 9.0 18.0 0.00 0.11 0.11 85 1011.3
20260904132059 67 275 9.0 15.0 0.00 0.11 0.11 86 1011.2
20260904131559 67 269 7.0 15.0 0.00 0.11 0.11 86 1011.1
20260904131101 67 257 5.0 17.0 0.00 0.11 0.11 86 1011.1
20260904124559 67 261 6.0 15.0 0.00 0.11 0.11 85 1011.1
20260904124100 67 263 7.0 18.0 0.00 0.11 0.11 85 1010.7
20260904123600 67 280 7.0 17.0 0.01 0.11 0.11 85 1010.8
20260904123100 67 315 5.0 12.0 0.01 0.11 0.11 86 1010.7
20260904122559 67 257 7.0 15.0 0.02 0.11 0.11 87 1010.8
20260904121059 66 289 11.0 21.0 0.03 0.11 0.11 91 1010.8
20260904120059 66 266 7.0 14.0 0.04 0.11 0.11 93 1010.6
20260904115559 66 272 7.0 18.0 0.05 0.11 0.11 93 1010.6
20260904115059 66 271 9.0 17.0 0.05 0.11 0.11 93 1010.6
20260904113559 65 285 10.0 17.0 0.05 0.10 0.10 93 1010.3
20260904113100 65 269 7.0 12.0 0.06 0.10 0.10 93 1010.5
20260904112559 65 284 4.0 12.0 0.07 0.09 0.09 93 1010.2
20260904110059 65 278 6.0 13.0 0.07 0.07 0.07 92 1010.2
20260904105559 65 296 5.0 14.0 0.06 0.06 0.06 92 1010.2
20260904105100 65 275 5.0 12.0 0.06 0.06 0.06 92 1010.1
20260904104559 65 283 6.0 12.0 0.06 0.06 0.06 92 1010.2
20260904103100 66 306 7.0 12.0 0.04 0.04 0.04 87 1010.2
20260904102559 68 309 7.0 17.0 0.02 0.02 0.02 84 1010.1
20260904102100 71 307 11.0 20.0 0.00 0.00 0.00 86 1009.9
20260904093559 72 238 15.0 25.0 0.00 0.00 0.00 83 1009.6
20260904093100 72 251 13.0 24.0 0.00 0.00 0.00 83 1009.6
20260904090058 72 241 14.0 28.0 0.00 0.00 0.00 83 1009.6
20260904082558 72 237 11.0 26.0 0.00 0.00 0.00 83 1009.3
20260904082059 72 239 16.0 29.0 0.00 0.00 0.00 83 1009.3
20260904080059 71 230 16.0 29.0 0.00 0.00 0.00 84 1009.5
20260904075558 71 245 14.0 25.0 0.00 0.00 0.00 85 1009.3
20260904074559 71 228 12.0 29.0 0.00 0.00 0.00 85 1009.4
20260904074100 71 244 11.0 23.0 0.00 0.00 0.00 86 1009.5
20260904073558 71 244 12.0 29.0 0.00 0.00 0.00 85 1009.5
20260904073059 71 236 14.0 28.0 0.00 0.00 0.00 86 1009.8
20260904072559 70 249 14.0 25.0 0.00 0.00 0.00 86 1009.9
20260904072059 71 261 13.0 24.0 0.00 0.00 0.00 85 1009.9
20260904071558 71 236 12.0 29.0 0.00 0.00 0.00 85 1009.9
20260904071059 71 253 13.0 23.0 0.00 0.00 0.00 85 1009.9
20260904065559 71 250 13.0 31.0 0.00 0.00 0.00 84 1009.9
20260904062059 71 243 11.0 26.0 0.00 0.02 0.00 84 1009.8
20260904053558 70 258 13.0 28.0 0.00 0.04 0.00 85 1010.5
20260904052059 70 240 9.0 26.0 0.00 0.05 0.00 85 1010.5
20260904051559 70 240 12.0 30.0 0.00 0.05 0.00 85 1010.5
20260904045059 70 251 12.0 26.0 0.00 0.05 0.00 85 1010.8
20260904044558 70 256 10.0 20.0 0.00 0.05 0.00 86 1011.0
20260904044059 70 249 9.0 21.0 0.00 0.05 0.00 86 1011.1
20260904043558 70 227 9.0 26.0 0.00 0.05 0.00 86 1011.1
20260904043059 70 244 10.0 33.0 0.00 0.05 0.00 86 1011.2
20260904042559 70 248 12.0 26.0 0.00 0.05 0.00 86 1011.3
20260904040058 70 236 10.0 17.0 0.00 0.05 0.00 86 1011.7
20260904035558 70 223 8.0 21.0 0.00 0.05 0.00 86 1011.7
20260904035100 70 251 9.0 17.0 0.00 0.05 0.00 87 1011.7
20260904034558 70 255 7.0 20.0 0.00 0.05 0.00 87 1011.7
20260904034059 70 231 9.0 23.0 0.00 0.05 0.00 87 1011.8
20260904033559 70 237 5.0 20.0 0.00 0.05 0.00 87 1011.9
20260904033059 70 251 8.0 16.0 0.00 0.05 0.00 87 1012.0
20260904030058 70 240 9.0 16.0 0.00 0.05 0.00 87 1012.0
20260904024558 70 225 7.0 15.0 0.00 0.05 0.00 87 1012.2
20260904024059 70 256 6.0 13.0 0.00 0.05 0.00 87 1012.2
20260904023559 70 228 10.0 16.0 0.00 0.05 0.00 87 1012.2
20260904023058 70 230 7.0 18.0 0.00 0.05 0.00 87 1012.2
20260904022558 70 243 9.0 23.0 0.00 0.05 0.00 86 1012.6
20260904022059 70 254 10.0 20.0 0.00 0.05 0.00 87 1012.5
20260904021558 70 243 8.0 20.0 0.00 0.05 0.00 86 1012.5
20260904020059 70 263 6.0 15.0 0.00 0.05 0.00 87 1012.8
20260904014558 70 229 5.0 13.0 0.00 0.05 0.00 87 1013.0
20260904014059 70 240 7.0 16.0 0.00 0.05 0.00 87 1013.0
20260904013558 70 230 7.0 16.0 0.00 0.05 0.00 87 1013.2
20260904013058 70 231 8.0 15.0 0.00 0.05 0.00 87 1013.2
20260903232058 70 239 5.0 9.0 0.00 0.05 0.00 87 1014.3
20260903231558 70 248 4.0 10.0 0.00 0.05 0.00 87 1014.3
20260903230057 70 228 7.0 15.0 0.00 0.05 0.00 87 1014.8
20260903225558 70 233 5.0 13.0 0.00 0.05 0.00 87 1014.8
20260903225058 70 233 5.0 12.0 0.00 0.05 0.00 87 1014.8
20260903224557 70 250 6.0 15.0 0.00 0.05 0.00 87 1014.8
20260903224059 70 238 7.0 16.0 0.00 0.05 0.00 87 1014.8